Погода в Абатском

Россия / Тюменская область     56°17′11″N   70°26′56″E
темп.,
°C
ветер,
м/с
пор.,
м/с
влажн.,
%
обл.,
%
осадки,
мм/ч
давл.,
гПа
погр.,
м
9 мая, вс
вс923:00+15ююв224291 0.0 101714
02:00+13всв3346100 0.0 101632
05:00+12в4853100 0.0 1017127
08:00+16в71153100 0.0 1017437
11:00+20в81037100 0.0 10181007
14:00+21всв893288 0.0 10181834
17:00+20всв7933100 0.0 10181952
20:00+16всв6124099 0.0 1019553
10 мая, пн
пн1023:00+13всв71346100 0.0 1020616
02:00+10всв61346100 0.0 1021537
05:00+9всв51252100 0.0 1022487
08:00+11всв71144100 0.0 1024898
11:00+14всв81035100 0.0 10241383
14:00+17всв793055 0.0 10241778
17:00+17всв673022 0.0 10241894
20:00+12в33450 0.0 102520
11 мая, вт
вт1123:00+9св23510 0.0 102620
02:00+8ссв22580 0.0 102614
05:00+7ссв33670 0.0 102747
08:00+13св35510 0.0 1027566
11:00+17ссв46350 0.0 10271456
14:00+19ссв45270 0.0 10261675
17:00+20ссв34260 0.0 10261631
20:00+15вюв113743 0.0 102610
12 мая, ср
ср1223:00+13юз3339100 0.0 102621
02:00+11зюз344812 0.0 102660
05:00+10з345727 0.0 102564
08:00+17зсз4742100 0.0 1025375
11:00+17сз464499 0.0 1024609
14:00+20сз5848100 0.6 10231676
17:00+18с783883 0.7 10241896
20:00+14с494930 0.0 1025214
13 мая, чт
чт1323:00+13с3749100 0.0 1025235
02:00+10ссз226546 0.0 102527
05:00+8сз22827 0.0 102637
08:00+14сз34589 0.0 1026565
11:00+18сз564681 0.0 10241281
14:00+22зсз684196 0.0 10222077
17:00+20сз51050100 0.0 1022514
20:00+18с6115963 0.1 1023538